QPF
0.00 0.00 0.00 0.00 0.00 0.00 0.00 0.00 0.00 0.00 0.00 0.00 0.00 0.00 0.00 0.00 0.00 0.00 0.00 0.00 0.00 0.00 0.00 0.00 0.00 0.00 0.00 0.00 0.00 0.00 0.00 0.00
0.00 0.00 0.00 0.00 0.00 0.00 0.00 0.00 0.00 0.00 0.00 0.00 0.00 0.00 0.00 0.00 0.00 0.00 0.00 0.00 0.00 0.00 0.00 0.00 0.00 0.00 0.00 0.00 0.00 0.00 0.00 0.00
0.00 0.00 0.00 0.00 0.00 0.00 0.00 0.00 0.00 0.00 0.00 0.00 0.00 0.00 0.00 0.00 0.00 0.00 0.00 0.00 0.00 0.00 0.00 0.00 0.00 0.00 0.00 0.00 0.00 0.00 0.00 0.00
0.00 0.00 0.00 0.00 0.00 0.00 0.00 0.00 0.00 0.00 0.00 0.00 0.00 0.00 0.00 0.00 0.00 0.00 0.00 0.00 0.00 0.00 0.00 0.00 0.00 0.00 0.00 0.00 0.00 0.00 0.00 0.00
0.00 0.00 0.00 0.00 0.00 0.00 0.00 0.00 0.00 0.00 0.00 0.00 0.00 0.00 0.00 0.00 0.00 0.00 0.00 0.00 0.00 0.00 0.00 0.00 0.00 0.00 0.00 0.00 0.00 0.00 0.00 0.00
0.00 0.00 0.00 0.00 0.00 0.00 0.00 0.00 0.00 0.00 0.00 0.00 0.00 0.00 0.00 0.00 0.00 0.00 0.00 0.00 0.00 0.00 0.00 0.00 0.00 0.00 0.00 0.00 0.00 0.00 0.00 0.00
0.00 0.00 0.00 0.00 0.00 0.00 0.00 0.00 0.00 0.00 0.00 0.00 0.00 0.00 0.00 0.00 0.00 0.00 0.00 0.00 0.00 0.00 0.00 0.00 0.00 0.00 0.00 0.00 0.00 0.00 0.00 0.00
0.00 0.00 0.00 0.00 0.00 0.00 0.00 0.00 0.00 0.00 0.00 0.00 0.00 0.00 0.00 0.00 0.00 0.00 0.00 0.00 0.00 0.00 0.00 0.00 0.00 0.00 0.00 0.00 0.00 0.00 0.00 0.00
0.00 0.00 0.00 0.00 0.00 0.00 0.00 0.00 0.00 0.00 0.00 0.00 0.00 0.00 0.00 0.00 0.00 0.00 0.00 0.00 0.00 0.00 0.00 0.00 0.00 0.00 0.00 0.00 0.00 0.00 0.00 0.00
0.00 0.00 0.00 0.00 0.00 0.00 0.00 0.00 0.00 0.00 0.00 0.00 0.00 0.00 0.00 0.00 0.00 0.00 0.00 0.00 0.00 0.00 0.00 0.00 0.00 0.00 0.00 0.00 0.00 0.00 0.00 0.00
0.00 0.00 0.00 0.00 0.00 0.00 0.00 0.00 0.00 0.00 0.00 0.00 0.00 0.00 0.00 0.00 0.00 0.00 0.00 0.00 0.00 0.00 0.00 0.00 0.00 0.00 0.00 0.00 0.00 0.00 0.00 0.00
0.00 0.00 0.00 0.00 0.00 0.00 0.00 0.00 0.00 0.00 0.00 0.00 0.00 0.00 0.00 0.00 0.00 0.00 0.00 0.00 0.00 0.00 0.00 0.00 0.00 0.00 0.00 0.00 0.00 0.00 0.00 0.00
0.00 0.00 0.00 0.00 0.00 0.00 0.00 0.00 0.00 0.00 0.00 0.00 0.00 0.00 0.00 0.00 0.00 0.00 0.00 0.00 0.00 0.00 0.00 0.00 0.00 0.00 0.00 0.00 0.00 0.00 0.00 0.00
0.00 0.00 0.00 0.00 0.00 0.00 0.00 0.00 0.00 0.00 0.00 0.00 0.00 0.00 0.00 0.00 0.00 0.00 0.00 0.00 0.00 0.00 0.00 0.00 0.00 0.00 0.00 0.00 0.00 0.00 0.00 0.00
0.00 0.00 0.00 0.00 0.00 0.00 0.00 0.00 0.00 0.00 0.00 0.00 0.00 0.00 0.00 0.00 0.00 0.00 0.00 0.00 0.00 0.00 0.00 0.00 0.00 0.00 0.00 0.00 0.00 0.00 0.00 0.00
0.00 0.00 0.00 0.00 0.00 0.00 0.00 0.00 0.00 0.00 0.00 0.00 0.00 0.00 0.00 0.00 0.00 0.00 0.00 0.00 0.00 0.00 0.00 0.00 0.00 0.00 0.00 0.00 0.00 0.00 0.00 0.00
0.00 0.00 0.00 0.00 0.00 0.00 0.00 0.00 0.00 0.00 0.00 0.00 0.00 0.00 0.00 0.00 0.00 0.00 0.00 0.00 0.00 0.00 0.00 0.00 0.00 0.00 0.00 0.00 0.00 0.00 0.00 0.00
0.00 0.00 0.00 0.00 0.00 0.00 0.00 0.00 0.00 0.00 0.00 0.00 0.00 0.00 0.00 0.00 0.00 0.00 0.00 0.00 0.00 0.00 0.00 0.00 0.00 0.00 0.00 0.00 0.00 0.00 0.00 0.00
0.00 0.00 0.00 0.00 0.00 0.00 0.00 0.00 0.00 0.00 0.00 0.00 0.00 0.00 0.00 0.00 0.00 0.00 0.00 0.00 0.00 0.00 0.00 0.00 0.00 0.00 0.00 0.00 0.00 0.00 0.00 0.00
MSLP
1021.05 1020.85 1020.86 1021.31 1021.25 1021.74 1021.63 1021.83 1021.66 1021.90 1022.19 1022.50 1022.87 1022.96 1023.20 1023.26 1023.23 1023.12 1023.05 1022.82 1022.62 1022.42 1022.63 1022.45 1022.43 1022.16 1021.78 1021.38 1021.41 1021.21 1020.87 1020.13
1021.55 1021.72 1021.78 1021.60 1021.64 1021.99 1022.11 1022.25 1022.48 1022.51 1022.66 1023.01 1023.35 1023.59 1023.92 1023.90 1023.75 1023.90 1023.53 1023.36 1023.15 1023.11 1023.35 1023.01 1023.07 1023.00 1022.86 1022.41 1022.09 1021.98 1021.39 1020.65
1022.03 1022.04 1022.08 1021.94 1022.19 1022.82 1022.91 1022.67 1022.87 1023.06 1022.97 1023.22 1023.49 1023.96 1024.45 1024.63 1024.70 1024.10 1024.07 1023.99 1024.00 1023.81 1024.01 1023.62 1023.81 1023.66 1023.29 1023.14 1023.10 1023.00 1022.77 1022.12
1022.24 1022.49 1022.58 1022.77 1022.51 1023.10 1023.28 1023.35 1023.26 1023.42 1023.46 1023.44 1023.99 1024.27 1024.93 1025.06 1025.17 1024.94 1025.00 1024.85 1024.63 1024.47 1024.50 1024.16 1024.45 1024.36 1024.04 1024.14 1023.98 1024.00 1023.87 1023.27
1022.00 1022.23 1022.77 1022.72 1023.15 1023.37 1023.54 1023.91 1023.92 1023.93 1023.84 1023.91 1024.53 1025.07 1025.63 1025.97 1025.92 1025.74 1025.77 1025.48 1025.10 1024.88 1025.01 1025.06 1025.10 1024.98 1024.81 1024.66 1024.82 1024.70 1024.48 1024.23
1021.75 1022.26 1022.71 1023.23 1023.33 1023.91 1023.94 1024.31 1024.31 1024.54 1024.38 1024.30 1025.23 1025.47 1026.06 1026.40 1026.37 1026.03 1026.34 1026.07 1025.65 1025.67 1025.60 1025.49 1025.38 1025.32 1025.62 1025.61 1025.27 1025.22 1025.26 1025.07
1021.59 1022.20 1022.76 1023.45 1023.89 1024.21 1024.22 1024.52 1024.80 1024.83 1024.91 1025.18 1025.43 1025.81 1026.56 1026.94 1026.81 1026.61 1026.63 1026.32 1026.34 1026.17 1026.03 1026.13 1025.87 1025.89 1025.84 1025.99 1025.79 1025.75 1025.62 1025.58
1021.36 1022.19 1022.84 1023.48 1023.94 1024.37 1024.59 1024.75 1025.15 1025.42 1025.52 1025.76 1025.91 1026.27 1026.72 1026.83 1026.88 1026.92 1026.83 1026.95 1026.89 1026.67 1026.39 1026.45 1026.37 1026.64 1026.41 1026.39 1026.18 1026.28 1026.07 1025.99
1020.91 1021.67 1022.32 1023.00 1023.77 1024.27 1024.68 1024.80 1025.24 1025.58 1025.89 1026.32 1026.52 1026.42 1026.46 1026.63 1026.90 1026.99 1027.30 1027.31 1027.03 1026.83 1026.74 1026.80 1026.68 1026.92 1026.67 1026.78 1026.68 1026.72 1026.52 1026.45
1020.45 1021.39 1022.02 1022.80 1023.55 1024.09 1024.40 1024.84 1025.43 1025.68 1026.11 1026.57 1026.72 1026.74 1026.71 1026.77 1026.96 1027.20 1027.54 1027.08 1026.88 1027.06 1026.98 1027.15 1027.14 1027.33 1027.31 1027.15 1027.25 1027.34 1027.16 1026.93
1019.96 1020.92 1021.79 1022.49 1023.26 1023.99 1024.51 1024.78 1025.41 1025.62 1026.10 1026.70 1026.83 1026.86 1026.85 1027.10 1027.07 1027.32 1027.38 1027.18 1027.15 1027.13 1027.29 1027.43 1027.68 1027.81 1027.72 1027.58 1027.77 1027.60 1027.46 1027.26
1019.35 1020.54 1021.50 1022.11 1023.05 1023.80 1024.52 1024.86 1025.36 1025.74 1026.22 1026.71 1026.92 1026.97 1027.15 1027.10 1027.12 1027.33 1027.26 1027.33 1027.25 1027.44 1027.76 1027.98 1028.03 1028.08 1028.10 1028.05 1028.02 1027.96 1027.84 1027.51
1018.97 1020.18 1021.18 1022.03 1022.91 1023.89 1024.41 1024.85 1025.11 1025.47 1026.08 1026.61 1026.93 1027.11 1027.11 1027.13 1027.23 1027.31 1027.49 1027.56 1027.72 1028.00 1028.05 1028.13 1028.16 1028.30 1028.35 1028.36 1028.38 1028.20 1027.84 1027.49
1019.07 1020.14 1020.81 1021.72 1022.70 1023.55 1024.11 1024.44 1024.78 1025.36 1026.05 1026.55 1026.83 1026.98 1027.11 1027.24 1027.37 1027.54 1027.84 1027.91 1028.21 1028.16 1028.16 1028.24 1028.40 1028.54 1028.66 1028.62 1028.48 1028.22 1027.97 1027.80
1018.25 1019.43 1020.21 1021.17 1022.01 1022.83 1023.53 1024.11 1024.53 1025.20 1025.84 1026.28 1026.66 1026.87 1026.99 1027.25 1027.60 1027.85 1028.03 1028.23 1028.24 1028.20 1028.24 1028.31 1028.63 1028.82 1028.78 1028.68 1028.55 1028.44 1028.21 1027.95
1017.63 1018.49 1019.55 1020.61 1021.59 1022.40 1023.05 1023.76 1024.43 1024.88 1025.46 1025.95 1026.34 1026.66 1027.06 1027.44 1027.79 1028.10 1028.17 1028.17 1028.15 1028.20 1028.32 1028.47 1028.71 1028.72 1028.70 1028.82 1028.69 1028.53 1028.31 1028.02
1016.45 1017.56 1018.72 1019.81 1020.79 1021.74 1022.47 1023.21 1023.88 1024.34 1025.04 1025.66 1026.11 1026.63 1027.12 1027.58 1027.88 1028.02 1028.18 1028.29 1028.29 1028.32 1028.46 1028.52 1028.66 1028.63 1028.75 1028.59 1028.67 1028.78 1028.56 1028.26
1015.52 1016.58 1017.67 1018.84 1019.94 1020.81 1021.75 1022.51 1023.24 1023.94 1024.64 1025.32 1025.92 1026.48 1027.07 1027.45 1027.72 1028.03 1028.22 1028.25 1028.27 1028.38 1028.46 1028.47 1028.64 1028.84 1028.67 1028.59 1028.68 1028.83 1028.70 1028.40
1014.24 1015.42 1016.77 1017.98 1019.08 1020.15 1021.02 1021.88 1022.71 1023.47 1024.28 1024.93 1025.56 1026.15 1026.68 1027.16 1027.61 1027.90 1028.00 1028.13 1028.26 1028.36 1028.43 1028.48 1028.62 1028.62 1028.57 1028.61 1028.65 1028.76 1028.63 1028.42
Thickness
5620 5623 5625 5622 5625 5624 5628 5630 5635 5635 5634 5632 5630 5631 5630 5630 5631 5632 5631 5632 5631 5632 5629 5629 5626 5627 5630 5632 5630 5629 5630 5632
5609 5611 5612 5616 5617 5618 5620 5622 5623 5625 5625 5622 5622 5621 5619 5619 5620 5619 5622 5622 5621 5621 5616 5617 5615 5614 5613 5616 5616 5615 5618 5620
5600 5601 5605 5608 5606 5603 5608 5612 5614 5615 5617 5617 5616 5612 5609 5608 5606 5611 5610 5610 5608 5607 5604 5605 5601 5601 5602 5601 5599 5598 5597 5599
5592 5591 5593 5595 5599 5597 5598 5601 5606 5607 5609 5610 5605 5603 5598 5598 5597 5599 5596 5595 5595 5594 5592 5594 5589 5587 5589 5585 5584 5582 5581 5583
5589 5588 5584 5587 5587 5589 5591 5590 5593 5595 5598 5599 5595 5591 5587 5584 5584 5585 5582 5582 5585 5585 5582 5580 5577 5576 5575 5574 5570 5569 5568 5568
5584 5581 5579 5575 5577 5576 5580 5580 5581 5582 5586 5589 5581 5580 5576 5573 5573 5575 5571 5572 5574 5571 5571 5570 5569 5567 5562 5560 5561 5559 5556 5555
5580 5577 5573 5568 5565 5565 5568 5571 5571 5573 5574 5574 5572 5571 5565 5561 5563 5564 5563 5565 5562 5561 5561 5558 5559 5558 5556 5552 5551 5549 5548 5545
5574 5568 5565 5562 5560 5559 5562 5564 5564 5563 5563 5563 5563 5561 5556 5556 5556 5555 5555 5552 5551 5552 5553 5551 5550 5545 5546 5544 5543 5540 5539 5537
5570 5567 5565 5562 5558 5555 5555 5558 5557 5555 5554 5552 5551 5554 5554 5553 5550 5548 5544 5543 5545 5545 5545 5542 5541 5537 5538 5535 5534 5531 5531 5528
5569 5563 5560 5557 5552 5550 5552 5551 5548 5548 5547 5544 5545 5546 5547 5547 5544 5540 5537 5540 5539 5538 5537 5534 5532 5528 5527 5528 5525 5522 5520 5519
5570 5563 5557 5555 5551 5547 5545 5545 5543 5544 5542 5538 5540 5540 5541 5537 5537 5534 5534 5534 5532 5531 5528 5525 5522 5520 5520 5519 5515 5514 5512 5510
5570 5562 5556 5553 5547 5543 5539 5540 5539 5539 5537 5535 5534 5533 5532 5532 5532 5530 5529 5526 5526 5523 5519 5516 5515 5514 5512 5510 5509 5506 5502 5501
5569 5560 5554 5549 5544 5537 5536 5536 5538 5537 5533 5530 5528 5527 5529 5528 5527 5525 5522 5521 5518 5514 5513 5511 5509 5507 5505 5502 5499 5497 5496 5495
5562 5555 5552 5548 5542 5539 5536 5537 5538 5534 5529 5525 5525 5525 5524 5523 5522 5520 5516 5514 5510 5509 5508 5506 5503 5500 5497 5495 5493 5492 5489 5486
5564 5557 5555 5550 5545 5542 5538 5535 5534 5530 5526 5525 5523 5522 5522 5520 5516 5513 5510 5507 5506 5505 5503 5501 5497 5493 5491 5489 5487 5484 5481 5478
5565 5561 5556 5551 5545 5541 5538 5534 5530 5529 5527 5524 5522 5520 5517 5513 5510 5506 5504 5504 5503 5501 5499 5496 5492 5489 5486 5483 5481 5478 5474 5470
5572 5566 5559 5553 5547 5540 5538 5534 5531 5530 5526 5522 5519 5515 5511 5507 5504 5503 5502 5500 5499 5497 5494 5492 5488 5485 5481 5478 5475 5470 5466 5462
5574 5568 5561 5554 5548 5544 5539 5535 5532 5529 5524 5519 5515 5510 5506 5503 5502 5500 5498 5497 5495 5493 5491 5489 5485 5480 5476 5473 5468 5462 5457 5453
5580 5572 5563 5556 5550 5545 5541 5537 5532 5527 5522 5518 5513 5508 5505 5502 5499 5498 5496 5494 5492 5490 5488 5485 5481 5477 5472 5468 5463 5457 5451 5445